Asturias, Spain

3:37 AM CET en Noviembre 21, 2017 (GMT +0100)
Asturias

Tiempo Historia de LEAS - Noviembre, 2017

Change the Weather History Date:

Martes, Noviembre 14, 2017

  Actual Average Record
Temperature  
Temperatura media 48 ° F -  
Temperatura máxima 57 ° F 56 ° F 71 ° F (2011)
Temperatura mínima 38 ° F 45 ° F 38 ° F (2017)
Degree Days  
Grados día de calefacción 18    
Moisture  
Punto de rocío 40 ° F    
Average Humidity 71    
Maximum Humidity 93    
Minimum Humidity 47    
Precipitación  
Precipitación 0.00 pul - - ()
Presión al nivel del mar  
Presión al nivel del mar 30.26 pul    
Viento  
Velocidad del viento 6 mph ()    
Velocidad máxima del viento 16 mph    
Max Gust Speed 28 mph    
Visibilidad 6.6 Millas    
Eventos      
Averages and records for this station are not official NWS values.
T = Trace of Precipitation, MM = Missing Value Source: Averaged Metar Reports

Daily Weather History Graph

Daily Weather History Graph

Search for Another Location

Airport or City:

Trip Planner

Search our weather history database for the weather conditions in past years. The results will help you decide how hot, cold, wet, or windy it might be!

Date:

Astronomía

Nov. 14, 2017 Salida Puesta
Hora real 8:16 AM CET 5:59 PM CET
Crepúsculo civil 7:45 AM CET 6:30 PM CET
Crepúsculo náutico 7:11 AM CET 7:05 PM CET
Crepúsculo astronómico 6:37 AM CET 7:39 PM CET
Luna 3:53 AM CET (11/14) 4:25 PM CET (11/14)
Horas de luz 10h 44m
Horas de luz
9h 43m
Creciente menguante, 15% of the Moon is Illuminated
Nov 14
Creciente menguante
Nov 18
Nueva
Nov 26
Cuarto creciente
Dic 3
Luna llena
Dic 10
Cuarto menguante

Hourly Weather History & Observations

Hora (CET) Temp. Vientos helados Punto de rocío Humedad Presión Visibilidad Wind Dir Velocidad del viento Velocidad de ráfagas Precip Eventos Condiciones
12:00 AM 46.4 ° F - 39.2 ° F 76% 30.33 pul 3.7 mi SSE 1.2 mph - N/A   Desconocido
12:30 AM 46.4 ° F - 39.2 ° F 76% 30.33 pul 3.7 mi SSE 2.3 mph - N/A   Desconocido
1:00 AM 41 ° F - 38 ° F 85% 30.35 pul - SSE 6.9 mph - -  
1:00 AM 46.4 ° F - 39.2 ° F 76% 30.33 pul 3.7 mi SSE 2.3 mph - N/A   Desconocido
1:30 AM 46.4 ° F - 39.2 ° F 76% 30.33 pul 3.7 mi SSE 2.3 mph - N/A   Desconocido
2:00 AM 42 ° F - 39 ° F 84% 30.34 pul - Sur 4.6 mph - -  
2:00 AM 46.4 ° F - 39.2 ° F 76% 30.30 pul 3.7 mi SSE 1.2 mph - N/A   Parcialmente nublado
2:30 AM 44.6 ° F - 37.4 ° F 76% 30.30 pul 3.7 mi Sur 1.2 mph - N/A   Parcialmente nublado
3:00 AM 42 ° F - 39 ° F 83% 30.34 pul - Sur 4.6 mph - -  
3:00 AM 46.4 ° F - 39.2 ° F 76% 30.30 pul 3.7 mi SSE 1.2 mph - N/A   Nubes dispersas
3:30 AM 44.6 ° F - 37.4 ° F 76% 30.30 pul 3.7 mi Variable 1.2 mph - N/A   Desconocido
4:00 AM 40 ° F - 38 ° F 88% 30.32 pul - Sur 4.6 mph - -  
4:00 AM 46.4 ° F - 37.4 ° F 71% 30.30 pul 3.7 mi Variable 2.3 mph - N/A   Desconocido
4:30 AM 44.6 ° F - 37.4 ° F 76% 30.27 pul 3.7 mi SSE 2.3 mph - N/A   Desconocido
5:00 AM 38 ° F - 36 ° F 91% 30.31 pul - Sur 4.6 mph - -  
5:00 AM 46.4 ° F - 39.2 ° F 76% 30.27 pul 3.7 mi SSE 2.3 mph - N/A   Desconocido
5:30 AM 41.0 ° F - 35.6 ° F 81% 30.27 pul 3.7 mi SSE 1.2 mph - N/A   Desconocido
6:00 AM 39 ° F - 37 ° F 91% 30.31 pul - Sur 4.6 mph - -  
6:00 AM 41.0 ° F - 37.4 ° F 87% 30.27 pul - SSE 2.3 mph - N/A   Despejado
6:30 AM 44.6 ° F - 37.4 ° F 76% 30.27 pul - SSE 2.3 mph - N/A   Despejado
7:00 AM 42.8 ° F - 37.4 ° F 81% 30.27 pul - SSE 2.3 mph - N/A   Despejado
7:30 AM 42.8 ° F - 37.4 ° F 81% 30.27 pul - Variable 2.3 mph - N/A   Despejado
8:00 AM 39 ° F - 37 ° F 91% 30.31 pul - Sur 5.8 mph - -  
8:00 AM 41.0 ° F - 35.6 ° F 81% 30.27 pul 6.2 mi Sin viento Sin viento - N/A   Parcialmente nublado
8:30 AM 39.2 ° F - 37.4 ° F 93% 30.27 pul 6.2 mi Sur 2.3 mph - N/A   Parcialmente nublado
9:00 AM 42 ° F - 38 ° F 83% 30.32 pul - Sur 5.8 mph - -  
9:00 AM 44.6 ° F - 39.2 ° F 81% 30.30 pul 6.2 mi Variable 2.3 mph - N/A   Parcialmente nublado
9:30 AM 48.2 ° F - 39.2 ° F 71% 30.30 pul 6.2 mi Variable 2.3 mph - N/A   Parcialmente nublado
10:00 AM 50 ° F - 42 ° F 67% 30.32 pul 16 mi SE 8.1 mph - -   Nubes dispersas
10:00 AM 50.0 ° F - 41.0 ° F 71% 30.30 pul 6.2 mi ESE 4.6 mph - N/A   Parcialmente nublado
10:30 AM 51.8 ° F - 41.0 ° F 67% 30.30 pul 6.2 mi ESE 6.9 mph - N/A   Parcialmente nublado
11:00 AM 53 ° F - 42 ° F 55% 30.31 pul - SE 12.7 mph - -  
11:00 AM 51.8 ° F - 42.8 ° F 71% 30.30 pul 6.2 mi ESE 8.1 mph - N/A   Parcialmente nublado
11:30 AM 53.6 ° F - 41.0 ° F 62% 30.30 pul 6.2 mi Este 9.2 mph - N/A   Parcialmente nublado
12:00 PM 55 ° F - 42 ° F 51% 30.30 pul - ESE 13.8 mph - -  
12:00 PM 53.6 ° F - 41.0 ° F 62% 30.27 pul 6.2 mi ESE 10.4 mph - N/A   Parcialmente nublado
12:30 PM 55.4 ° F - 42.8 ° F 63% 30.27 pul 6.2 mi Este 10.4 mph - N/A   Parcialmente nublado
1:00 PM 57 ° F - 43 ° F 48% 30.27 pul 16 mi ESE 12.7 mph - -   Nubes dispersas
1:00 PM 55.4 ° F - 41.0 ° F 58% 30.27 pul 6.2 mi Este 12.7 mph - N/A   Parcialmente nublado
1:30 PM 55.4 ° F - 42.8 ° F 63% 30.24 pul 6.2 mi Este 12.7 mph - N/A   Parcialmente nublado
2:00 PM 57 ° F - 42 ° F 47% 30.26 pul - Este 13.8 mph - -  
2:00 PM 55.4 ° F - 42.8 ° F 63% 30.24 pul 6.2 mi Este 13.8 mph 25.3 mph N/A   Parcialmente nublado
2:30 PM 55.4 ° F - 44.6 ° F 67% 30.24 pul 6.2 mi Este 13.8 mph - N/A   Parcialmente nublado
3:00 PM 57 ° F - 43 ° F 50% 30.25 pul - ESE 13.8 mph - -  
3:00 PM 55.4 ° F - 44.6 ° F 67% 30.24 pul 6.2 mi Este 12.7 mph - N/A   Parcialmente nublado
3:30 PM 55.4 ° F - 42.8 ° F 63% 30.21 pul 6.2 mi Este 12.7 mph - N/A   Parcialmente nublado
4:00 PM 55 ° F - 42 ° F 50% 30.23 pul 16 mi Este 15.0 mph - -   Nubes dispersas
4:00 PM 55.4 ° F - 41.0 ° F 58% 30.21 pul 6.2 mi Este 16.1 mph - N/A   Parcialmente nublado
4:30 PM 53.6 ° F - 42.8 ° F 67% 30.21 pul 6.2 mi Este 15.0 mph 27.6 mph N/A   Parcialmente nublado
5:00 PM 54 ° F - 42 ° F 54% 30.22 pul - ESE 13.8 mph - -  
5:00 PM 53.6 ° F - 42.8 ° F 67% 30.21 pul - Este 12.7 mph - N/A   Despejado
5:30 PM 51.8 ° F - 41.0 ° F 67% 30.21 pul - Este 12.7 mph - N/A   Despejado
6:00 PM 51 ° F - 42 ° F 62% 30.24 pul - ESE 10.4 mph - -  
6:00 PM 51.8 ° F - 42.8 ° F 71% 30.21 pul - Este 9.2 mph - N/A   Despejado
6:30 PM 51.8 ° F - 41.0 ° F 67% 30.21 pul - ESE 9.2 mph - N/A   Despejado
7:00 PM 50 ° F - 41 ° F 63% 30.24 pul 16 mi ESE 12.7 mph - -   Despejado
7:00 PM 50.0 ° F - 41.0 ° F 71% 30.21 pul - ESE 9.2 mph - N/A   Despejado
7:30 PM 50.0 ° F - 41.0 ° F 71% 30.21 pul - ESE 9.2 mph - N/A   Despejado
8:00 PM 48 ° F - 41 ° F 70% 30.23 pul - SE 12.7 mph - -  
8:00 PM 50.0 ° F - 41.0 ° F 71% 30.21 pul - ESE 8.1 mph - N/A   Despejado
8:30 PM 50.0 ° F - 41.0 ° F 71% 30.21 pul - ESE 10.4 mph - N/A   Despejado
9:00 PM 47 ° F - 40 ° F 70% 30.22 pul - SE 10.4 mph - -  
9:00 PM 48.2 ° F - 41.0 ° F 76% 30.21 pul - ESE 6.9 mph - N/A   Despejado
9:30 PM 48.2 ° F - 41.0 ° F 76% 30.21 pul - ESE 8.1 mph - N/A   Despejado
10:00 PM 47 ° F - 39 ° F 65% 30.22 pul 12 mi ESE 15.0 mph - -   Despejado
10:00 PM 48.2 ° F - 39.2 ° F 71% 30.18 pul - Este 10.4 mph 21.9 mph N/A   Despejado
10:30 PM 48.2 ° F - 37.4 ° F 66% 30.18 pul - ESE 9.2 mph - N/A   Despejado
11:00 PM 46 ° F - 37 ° F 62% 30.22 pul - SE 11.5 mph - -  
11:00 PM 48.2 ° F - 37.4 ° F 66% 30.18 pul - ESE 9.2 mph - N/A   Despejado
11:30 PM 46.4 ° F 42.9 ° F 35.6 ° F 66% 30.18 pul - ESE 6.9 mph - N/A   Despejado